Tracking 31027 objects as of 19-Jul-2025
HD Live streaming from Space Station
objects crossing your sky now

STARLINK-4778

Track STARLINK-4778 now!
10-day predictions
STARLINK-4778 is classified as:


NORAD ID: 53836
Int'l Code: 2022-114U
Perigee: 546.1 km
Apogee: 547.6 km
Inclination: 53.2 °
Period: 95.4 minutes
Semi major axis: 6917 km
RCS: Unknown
Launch date: September 19, 2022
Source: United States (US)
Launch site: AIR FORCE EASTERN TEST RANGE (AFETR)
Your satellite tracking list
ST5-A
Track 1 satellite(s)




NASA's NSSDC Master Catalog

Two Line Element Set (TLE):
1 53836U 22114U   25199.56387648  .00000727  00000-0  63781-4 0  9993
2 53836  53.2172 265.3580 0001111  83.4886 276.6233 15.08840427157626
Source of the keplerian elements: AFSPC